Preview of NWS' New Version of Forecast
This preview is not operational and should not be used for support decisions.

Regional Weather Roundup (RWR)

Issued by Gray - Portland, ME (GYX)

                            
000
ASUS41 KGYX 240310
RWRGYX
WEATHER ROUNDUP FOR MAINE AND NEW HAMPSHIRE
NATIONAL WEATHER SERVICE GRAY ME
1100 PM EDT THU MAY 23 2019

MEZ002-005-006-010-012-015-018-020-021-024-026-027-029-240400-
MAINE
  
CITY           SKY/WX    TMP DP  RH WIND       PRES   REMARKS
PORTLAND       CLOUDY    53  50  89 CALM      29.76F                  
SANFORD        LGT RAIN  56  54  93 N6        29.76F                  
BAR HARBOR     LGT RAIN  49  47  93 E5        29.85F FOG              
WISCASSET      CLOUDY    51  49  92 VRB3      29.78F                  
ROCKLAND       LGT RAIN  48  47  96 S5        29.79F                  
FRYEBURG       LGT RAIN  56  55  97 CALM      29.73F                  
LEWISTONAUBURN RAIN      52  51  97 E3        29.75F                  
AUGUSTA        LGT RAIN  51  50  96 CALM      29.78F                  
WATERVILLE     LGT RAIN  50  49  96 VRB3      29.74F                  
BANGOR         LGT RAIN  50  48  93 SE6       29.83F                  
GREENVILLE       N/A     47  46  97 SE13      29.76F                  
MILLINOCKET    LGT RAIN  51  49  92 SE6       29.84F                  
HOULTON        LGT RAIN  53  44  71 S5        29.85F                  
PRESQUE ISLE   LGT RAIN  53  47  79 SE5       29.86F                  
FRENCHVILLE    CLOUDY    56  43  61 S5        29.84F                  
CARIBOU        LGT RAIN  56  44  64 S5        29.84F                  
$$

NHZ002-005-008-009-011-012-014-240400-
NEW HAMPSHIRE
  
CITY           SKY/WX    TMP DP  RH WIND       PRES   REMARKS
PORTSMOUTH     CLOUDY    59  54  83 S3        29.72F                  
ROCHESTER      HVY RAIN  58  54  86 CALM      29.75F FOG              
NASHUA         MOCLDY    59  58  96 VRB3      29.74F                  
MANCHESTER     LGT RAIN  60  55  83 SW6       29.73S                  
CONCORD        HVY RAIN  56  55  97 SE3       29.76F FOG              
LACONIA        LGT RAIN  57  55  93 S6        29.74S                  
PLYMOUTH       LGT RAIN  57  55  94 CALM      29.72F                  
BERLIN         NOT AVBL                                               
WHITEFIELD     LGT RAIN  56  54  93 N3        29.66F                  
JAFFREY        RAIN      58  55  90 VRB7      29.77R FOG              
KEENE          LGT RAIN  57  56  96 CALM      29.76S FOG              
LEBANON        MOCLDY    59  54  83 S7        29.71F                  
MT WASHINGTON  LGT RAIN  43  43 100 W39         N/A  VSB 0            
$$

VTZ005-007-008-240400-
VERMONT
  
CITY           SKY/WX    TMP DP  RH WIND       PRES   REMARKS
ST JOHNSBURY     N/A     58  57  97 MISG      29.65F                  
MONTPELIER     FAIR      57  55  93 CALM      29.71F                  
BURLINGTON     MOCLDY    62  60  93 S10       29.66S                  
$$

MAZ007-012-024-CTZ003-RIZ002-NYZ038-NYZ072-240400-
SOUTHERN NEW ENGLAND AND NY
  
CITY           SKY/WX    TMP DP  RH WIND       PRES   REMARKS
BOSTON         CLOUDY    62  56  80 SW14      29.75F                  
WORCESTER      CLOUDY    58  57  97 SW15      29.76F                  
NANTUCKET      CLOUDY    56  55  97 S20G28    29.86F                  
PROVIDENCE     CLOUDY    61  58  90 S10       29.79F                  
HARTFORD       CLOUDY    64  59  83 S14       29.77F                  
ALBANY         FAIR      64  59  83 W9        29.78R                  
NEW YORK CITY  MOCLDY    68  62  81 VRB7      29.83F                  
$$

ANZ081-ANZ082-ANZ150-NHZ014-MEZ023>029-240400-
COASTAL MARINE OBSERVATIONS
  
STATION/POSITION TIME  TEMP    WIND        PRES    WAVE
                       AIR SEA DIR/SP/G            HT/PER
                 (UTC) (F)     (DEG/KT/KT) (MB)    (FT/S)
ISLE OF SHOALS   0200   56     180/ 19/ 19 1007.7F
JEFFREYS LEDGE   0238      47                N/A     3/ 6
GEORGES BANK BUO 0250   50 45  180/ 14/ 17 1017.3F   3/ 8
$$

.............KEY..............
   WCI - WIND CHILL
   TC  - TEMPERATURE IN CELSIUS
   VSB - VISIBILITY IN MILES
   HX  - HEAT INDEX
   FAIR- INDICATES FEW OR NO CLOUDS BELOW 12,000 FT, WITH NO 
         SIGNIFICANT WEATHER AND/OR OBSTRUCTIONS TO VISIBILITY.